AO-07 1 07530U 74089B 25258.30767284 -.00000040 00000-0 38223-4 0 9999 2 07530 101.9984 263.6254 0011940 296.8088 74.0534 12.53691498326072 UO-11 1 14781U 84021B 25258.14283757 .00001247 00000-0 13610-3 0 9993 2 14781 97.7658 222.6492 0008399 25.5513 334.6118 14.89666852216169 AO-27 1 22825U 93061C 25258.11991375 .00000067 00000-0 42577-4 0 9998 2 22825 98.7274 320.1196 0008406 179.7374 180.3814 14.30828500667663 FO-29 1 24278U 96046B 25258.12621006 -.00000022 00000-0 10489-4 0 9999 2 24278 98.5587 139.1175 0350908 89.8277 274.3063 13.53253641435965 NOAA-15 1 25338U 98030A 25258.20404529 .00000171 00000-0 87995-4 0 9990 2 25338 98.5320 280.9704 0011418 75.3963 284.8483 14.27016548422078 GO-32 1 25397U 98043D 25258.19620501 .00000105 00000-0 65569-4 0 9997 2 25397 98.9816 239.4006 0000490 341.4934 18.6226 14.24338787412182 ISS 1 25544U 98067A 25258.12535402 .00014378 00000-0 25658-3 0 9996 2 25544 51.6329 221.2965 0004312 341.0386 19.0441 15.50311716529117 NO-44 1 26931U 01043C 25258.23349866 .00000246 00000-0 12295-3 0 9996 2 26931 67.0492 235.3438 0007065 275.2244 84.8052 14.31778657251085 SO-50 1 27607U 02058C 25258.01050130 .00001284 00000-0 17457-3 0 9991 2 27607 64.5509 259.7260 0066296 313.5592 46.0019 14.81882541223662 CO-55 1 27844U 03031E 25258.27514289 .00000392 00000-0 18944-3 0 9995 2 27844 98.6790 265.3028 0008424 263.6061 96.4159 14.24068096152545 CO-57 1 27848U 03031J 25258.26949755 .00000326 00000-0 16290-3 0 9997 2 27848 98.6821 265.2286 0008365 283.6694 76.3553 14.23392610152262 RS-22 1 27939U 03042A 25258.27402510 .00001385 00000-0 22586-3 0 9995 2 27939 98.3368 70.1516 0012440 63.2745 110.3161 14.72586500175078 CO-58 1 28895U 05043F 25258.18675967 .00001933 00000-0 32067-3 0 9992 2 28895 98.2636 43.8500 0014359 2.3325 357.7946 14.71342601 61293 CO-65 1 32785U 08021C 25258.21678338 .00008002 00000-0 56162-3 0 9999 2 32785 97.7951 230.2153 0008043 236.1642 123.8819 15.05406536943766 CO-66 1 32791U 08021J 25258.21489376 .00024846 00000-0 11175-2 0 9996 2 32791 97.7372 240.6325 0004304 150.1544 209.9937 15.21095503945325 RS-30 1 32953U 08025A 25258.26441124 .00000014 00000-0 28800-4 0 9990 2 32953 82.5071 166.4444 0018531 189.4896 170.5836 12.43168150785538 NOAA-19 1 33591U 09005A 25258.24949592 .00000119 00000-0 87346-4 0 9994 2 33591 98.9886 323.4638 0014812 88.5809 271.7059 14.13407141855649 SRMSAT 1 37841U 11058D 25257.44434738 .00000409 00000-0 78501-4 0 9994 2 37841 19.9720 288.3720 0011937 50.9586 339.7082 14.11463943718810 ZACUBE-1 1 39417U 13066B 25257.83810121 .00005171 00000-0 43922-3 0 9992 2 39417 97.7901 214.4320 0045911 87.1434 273.5041 14.97505664639469 Delfi-N3xt 1 39428U 13066N 25258.21010119 .00014236 00000-0 13989-2 0 9997 2 39428 97.8282 174.8115 0084376 39.8403 320.8968 14.89579473633607 GOMX-1 1 39430U 13066Q 25258.30980509 .00002210 00000-0 34717-3 0 9991 2 39430 97.6721 110.9504 0130339 239.2924 119.5388 14.68001220629560 LO-74 1 39440U 13066AA 25258.10275433 .00002555 00000-0 25790-3 0 9996 2 39440 97.8551 202.0589 0059955 216.8072 142.9023 14.90666412635961 AO-73 1 39444U 13066AE 25258.15232207 .00013193 00000-0 94819-3 0 9995 2 39444 97.7926 220.5632 0043438 59.2928 301.2566 15.03626319638245 DTUSAT-2 1 40030U 14033W 25257.91090517 .00005766 00000-0 36327-3 0 9999 2 40030 98.0657 234.5707 0011183 91.6308 268.6201 15.09534439611076 EO-80 1 40032U 14033Y 25258.19122069 .00010991 00000-0 68617-3 0 9993 2 40032 98.0542 234.3841 0009773 43.3079 316.8915 15.09641224611090 LILACSAT-2 1 40908U 15049K 25258.33909196 .00021976 00000-0 53057-3 0 9990 2 40908 97.5034 281.1756 0009675 157.1145 203.0534 15.41160376553275 IO-86 1 40931U 15052B 25151.18580175 .00001241 00000-0 78118-4 0 9996 2 40931 6.0006 24.0987 0012733 338.8432 21.1169 14.78805930523159 Horyu-4 1 41340U 16012D 25258.09211493 .00027351 00000-0 62904-3 0 9995 2 41340 30.9944 194.2005 0006098 344.7353 15.3109 15.41397215527827 Lapan A3 1 41603U 16040E 25258.26610368 .00005263 00000-0 18062-3 0 9995 2 41603 97.1423 259.1007 0008792 282.8080 77.2179 15.30525107512729 CAS-2T 1 41847U 16066G 25258.13288032 .00000914 00000-0 13986-3 0 9996 2 41847 98.4129 331.7275 0344211 243.2162 113.3435 14.43713316465099 CAS-4B 1 42759U 17034B 25257.81233646 .00211668 00000-0 91159-3 0 9998 2 42759 43.0007 95.7879 0024062 264.1082 95.7047 15.83192265457892 CAS-4A 1 42761U 17034D 25257.97538523 .00228966 26460-4 84956-3 0 9998 2 42761 43.0038 90.2453 0024790 271.2659 88.5375 15.86858000457954 TechnoSat 1 42829U 17042E 25258.17592907 .00004103 00000-0 31370-3 0 9996 2 42829 97.4017 62.3003 0016229 318.0174 41.9807 15.02353096445379 AO-91 1 43017U 17073E 25258.09883546 .00006854 00000-0 34217-3 0 9991 2 43017 97.5102 126.4288 0167635 193.3413 166.3356 15.06291240423889 S-Net D 1 43186U 18014G 25258.29639399 .00007279 00000-0 41845-3 0 9998 2 43186 97.5500 160.2031 0007049 243.6787 116.3720 15.12763243417141 S-Net B 1 43187U 18014H 25258.17079528 .00006961 00000-0 40056-3 0 9998 2 43187 97.5506 160.0552 0007780 238.8044 121.2425 15.12740668417129 S-Net A 1 43188U 18014J 25258.23028596 .00007263 00000-0 41745-3 0 9997 2 43188 97.5514 160.2774 0007701 239.4416 120.6056 15.12767769417135 S-Net C 1 43189U 18014K 25258.17343379 .00006980 00000-0 40155-3 0 9999 2 43189 97.5530 160.2519 0009278 231.7143 128.3254 15.12736934415676 Ten-Koh 1 43677U 18084G 25257.93915992 .00001729 00000-0 14052-3 0 9990 2 43677 98.0813 74.0561 0005859 297.6086 62.4541 15.01011732374845 PO-101 1 43678U 18084H 25258.27813399 .00001795 00000-0 15434-3 0 9995 2 43678 98.1087 78.1947 0008361 330.2762 29.7983 14.98761266375014 QO-100 1 43700U 18090A 25258.23286889 .00000129 00000-0 00000-0 0 9992 2 43700 0.0164 113.1993 0001595 104.4213 246.4810 1.00273775 24923 MinXSS-2 1 43758U 18099A 25257.70275919 .00014933 00000-0 53532-3 0 9996 2 43758 97.4924 324.1976 0011848 167.9853 192.1671 15.28759918371796 AO-95 1 43770U 18099N 25258.14105840 .00007986 00000-0 38508-3 0 9990 2 43770 97.4819 315.2041 0009345 225.3065 134.7409 15.18937302371357 SNUSat 2 1 43782U 18099AA 25257.61706281 .00006107 00000-0 32114-3 0 9991 2 43782 97.4503 310.6257 0012210 170.2118 189.9355 15.15964554371190 SnugLite 1 43784U 18099AC 25258.08376678 .00008732 00000-0 41673-3 0 9994 2 43784 97.4316 310.8621 0004196 154.3348 205.8096 15.19292502371431 ITASat 1 1 43786U 18099AE 25258.13189868 .00005105 00000-0 28335-3 0 9996 2 43786 97.4472 310.3423 0012955 223.4053 136.6160 15.14109358371214 EAGLET 1 1 43790U 18099AJ 25258.13345068 .00003194 00000-0 20113-3 0 9999 2 43790 97.4668 309.9557 0011151 207.2646 152.7999 15.09834903370788 ESEO 1 43792U 18099AL 25258.08290629 .00001840 00000-0 14115-3 0 9998 2 43792 97.4365 301.8386 0012119 187.3873 172.7176 15.02941042370460 JO-97 1 43803U 18099AX 25257.89939450 .00011148 00000-0 47644-3 0 9996 2 43803 97.4565 316.1911 0008139 155.4675 204.6950 15.22996308371576 Suomi 100 1 43804U 18099AY 25257.88322691 .00008780 00000-0 40778-3 0 9998 2 43804 97.4629 315.1713 0012676 162.5078 197.6596 15.20171219371474 ISAT 1 43879U 18111D 25258.29677289 .00047562 00000-0 14461-2 0 9997 2 43879 97.5869 175.0577 0007073 188.7632 171.3488 15.33865690368657 UWE-4 1 43880U 18111E 25258.23293286 .00031248 00000-0 11122-2 0 9999 2 43880 97.5810 172.7259 0009387 215.1841 144.8780 15.28863192368539 Sparrow 1 43881U 18111F 25258.06248899 .00025251 00000-0 73601-3 0 9999 2 43881 97.6034 178.1015 0003606 230.0850 130.0076 15.35358465368729 Prox-1 1 44339U 19036A 25258.05674067 .00011314 00000-0 13622-2 0 9995 2 44339 23.9952 140.6111 0006830 102.1346 257.9917 14.81934764332480 Taurus 1 1 44530U 19059C 25258.23640894 .00011716 00000-0 20943-2 0 9994 2 44530 98.6172 42.3964 0009637 94.9148 265.3155 14.67031143318255 Duchifat 3 1 44854U 19089C 25257.90350595 .00078019 00000-0 10458-2 0 9994 2 44854 36.9379 92.3699 0007153 354.9671 5.1016 15.56795546318135 TO-108 1 44881U 19093C 25258.28508603 .00001046 00000-0 12630-3 0 9997 2 44881 97.7853 331.8676 0012295 270.7996 89.1811 14.85790951310583 FloripaSat 1 1 44885U 19093G 25258.27813611 .00008305 00000-0 68040-3 0 9999 2 44885 97.8166 346.1299 0008231 237.1713 122.8718 14.99516183311382 RS-44 1 44909U 19096E 25258.20215250 .00000024 00000-0 44988-4 0 9993 2 44909 82.5253 162.4368 0218523 67.3852 295.0204 12.79743481267176 UPMSat 2 1 46276U 20061E 25258.16491399 .00320157 39812-4 10613-2 0 9996 2 46276 97.2296 336.9546 0003617 221.7479 138.3519 15.90323007280849 SALSAT 1 46495U 20068K 25258.22557716 .00011146 00000-0 46079-3 0 9993 2 46495 97.8709 240.9066 0011221 172.1786 187.9627 15.24111478273394 TUBIN 1 48900U 21059X 25258.30908222 .00127290 00000-0 10275-2 0 9994 2 48900 97.6778 76.1712 0003005 224.4112 135.6909 15.70464648235328 LEDSAT 1 49069U 21073D 25257.98401617 .00203567 00000-0 10197-2 0 9991 2 49069 97.3771 344.6922 0001922 94.6292 265.5195 15.81221895226702 CUTE 1 49263U 21088D 25258.03051434 .00020476 00000-0 34623-3 0 9995 2 49263 97.4423 337.3790 0005518 223.5429 136.5388 15.51607778219512 TeikyoSat 4 1 49396U 21102B 25258.03809053 .00001925 00000-0 12872-3 0 9997 2 49396 97.4032 292.9334 0013208 152.7132 207.4793 15.08030392211237 Z-Sat 1 49399U 21102E 25258.25349564 .00006609 00000-0 35379-3 0 9991 2 49399 97.3726 296.8605 0019343 122.7718 237.5382 15.15195421211765 KOSEN 1 1 49402U 21102H 25258.11202784 .00005957 00000-0 26638-3 0 9996 2 49402 97.3622 300.9005 0017216 97.7637 262.5555 15.21549124212114 HO-113 1 50466U 21131B 25258.32820063 .00000676 00000-0 22426-3 0 9993 2 50466 98.5082 347.1981 0004024 187.5000 172.6130 14.40924405195524 SNUGLITE 2 1 52899U 22065F 25258.20334388 .00001439 00000-0 28715-3 0 9994 2 52899 98.1827 39.3128 0007980 159.3163 200.8364 14.63443955170766 UmKA 1 (RS40S) 1 57172U 23091G 25258.23874021 .00008739 00000-0 45171-3 0 9994 2 57172 97.5485 313.1267 0013803 3.2767 356.8554 15.16431947122276 CubeBel-2 (EU11S) 1 57175U 23091K 25258.25711555 .00016004 00000-0 72088-3 0 9992 2 57175 97.5482 314.9291 0011406 9.7432 350.4022 15.21088413122394 ENSO 1 58470U 23185J 25258.29431667 .00239731 00000-0 19331-2 0 9997 2 58470 97.3617 337.3415 0003497 100.6771 259.4885 15.70155051100282 SONATE-2 1 59112U 24043Q 25258.07202825 .00018673 00000-0 48342-3 0 9998 2 59112 97.5250 31.4860 0010973 124.7596 235.4684 15.39052848 85318 MO-122 1 60209U 24125G 25258.05781620 .00019335 00000-0 48974-3 0 9998 2 60209 97.2680 108.7529 0018286 142.2382 218.0152 15.39595530 66938 GRBBeta 1 60237U 24128C 25258.26726686 .00006226 00000-0 45402-3 0 9994 2 60237 61.9903 98.7555 0056766 78.6440 282.1021 15.03469812 64887 Curium One 1 60242U 24128H 25258.12565767 .00011781 00000-0 77671-3 0 9991 2 60242 61.9798 95.9740 0056613 75.4355 285.3007 15.06565901 64924 ROBUSTA-3A 1 60243U 24128J 25258.09404787 .00006334 00000-0 43149-3 0 9993 2 60243 61.9871 97.2561 0056032 72.8696 287.8521 15.06018216 64905 CatSat 1 60246U 24125J 25257.00201130 .00017805 00000-0 54156-3 0 9995 2 60246 97.2496 105.7763 0041492 109.6460 250.9268 15.33215405 64744 HYPERVIEW-1G (RS66S) 1 61772U 24199AP 25258.24710459 .00051118 00000-0 12897-2 0 9997 2 61772 97.3370 127.0822 0011896 191.5331 168.5645 15.39614839 91963 AO-123 1 61781U 24199AY 25258.22685510 .00011066 00000-0 38640-3 0 9997 2 61781 97.3392 124.7395 0014493 205.0876 154.9662 15.29652894 91800 ZIMSAT 2 1 61783U 24199BA 25258.25962508 .00105821 00000-0 19515-2 0 9999 2 61783 97.3325 128.6705 0011138 181.0718 179.0511 15.48679613 95227 HADES-R (SO-124) 1 62690U 25009CK 25257.77651021 .00044539 00000-0 12374-2 0 9993 2 62690 97.4012 338.6285 0003001 132.6212 227.5285 15.36738911 37032 HYDRA-T 1 62692U 25009CM 25257.47980639 .00040590 00000-0 11128-2 0 9991 2 62692 97.4012 338.4147 0002685 129.7510 230.3972 15.37176149 36993 JINJUSat 1B 1 63210U 25052A 25257.66113957 .00011088 00000-0 47727-3 0 9993 2 63210 97.4264 150.6137 0004038 16.3200 343.8166 15.22776971 28015 NUSHSAT 1 1 63211U 25052B 25258.16016927 .00026245 00000-0 11064-2 0 9994 2 63211 97.4253 151.1439 0004263 21.1560 338.9852 15.23290700 28095 TEVEL2-4 1 63213U 25052D 25257.93295790 .00011571 00000-0 49672-3 0 9990 2 63213 97.4168 150.6391 0004209 39.3860 320.7682 15.22853867 28051 TEVEL2-5 1 63214U 25052E 25257.67244580 .00011632 00000-0 49994-3 0 9998 2 63214 97.4171 150.3769 0004226 40.5633 319.5918 15.22813724 28015 TEVEL2-6 1 63215U 25052F 25257.93998302 .00011267 00000-0 48488-3 0 9997 2 63215 97.4171 150.6331 0004303 40.7085 319.4472 15.22777810 28056 TEVEL2-1 1 63217U 25052H 25257.96593063 .00011534 00000-0 49995-3 0 9998 2 63217 97.4147 150.5389 0004904 48.3940 311.7716 15.22522601 28056 TEVEL2-3 1 63218U 25052J 25257.96599091 .00011447 00000-0 49610-3 0 9993 2 63218 97.4148 150.5410 0004954 48.8266 311.3397 15.22531238 28051 TEVEL2-2 1 63219U 25052K 25257.96664102 .00011514 00000-0 49916-3 0 9994 2 63219 97.4148 150.5394 0004934 48.7041 311.4620 15.22519060 28050 TEVEL2-9 1 63237U 25052AD 25257.65126092 .00011252 00000-0 50651-3 0 9998 2 63237 97.4209 150.0466 0009349 47.8464 312.3564 15.21209231 27980 TEVEL2-7 1 63238U 25052AE 25257.98713196 .00011191 00000-0 50502-3 0 9999 2 63238 97.4214 150.3659 0009377 46.6999 313.5017 15.21125945 28037 TEVEL2-8 1 63239U 25052AF 25257.66221519 .00010746 00000-0 48560-3 0 9994 2 63239 97.4213 150.0345 0009430 47.9392 312.2644 15.21089570 27985 HYDRA-W 1 63490U 25052BL 25257.68745179 .00030847 00000-0 11053-2 0 9998 2 63490 97.4155 151.0894 0012356 44.0971 316.1252 15.28612241 28063 HADES-ICM (SO-125) 1 63492U 25052BN 25257.67350936 .00028537 00000-0 10480-2 0 9998 2 63492 97.4161 150.9701 0012728 46.3648 313.8644 15.27815412 28058